Home   Weather   Fairfield Landing   Past weeks
Flag for USA

Past Weather in Fairfield Landing, Virginia, USA — Yesterday and Last 2 Weeks

Now
42 °F

Clear.


Feels Like: 36 °F
Forecast: 54 / 43 °F
Wind: 12 mph from Southwest

Location: Langley Air Force Base

Current Time: Dec 15, 2019 at 5:24:10 am

Latest Report: Dec 15, 2019 at 4:56 am


Visibility: 10 mi

Pressure: 29.89 "Hg

Humidity: 81%

Dew Point: 37 °F

Location of Fairfield LandingLocation

Past Weather in Fairfield Landing — Graph

°F

Fairfield Landing Temperature Yesterday

Maximum temperature yesterday: 55 °F (at 9:37 am)
Minimum temperature yesterday: 47 °F (at 11:56 pm)
Average temperature yesterday: 52 °F

High & Low Weather Summary for the Past Weeks

 TemperatureHumidityPressure
High72 °F (Dec 10, 2:56 pm)100% (Dec 1, 2:11 am)30.75 "Hg (Dec 1, 2:11 am)
Low31 °F (Dec 7, 8:56 pm)37% (Dec 5, 1:56 pm)29.42 "Hg (Dec 14, 12:56 pm)
Average47 °F82%30.01 "Hg
* Reported Nov 30 3:56 am — Dec 15 3:56 am, Fairfield Landing. Weather by CustomWeather, © 2019

Note: Actual official high and low records may vary slightly from our data, if they occured in-between our weather recording intervals... More about our weather records

Fairfield Landing Weather History for the Previous 24 Hours

Scroll right to see more
 ConditionsComfort  
Time TempWeatherWind HumidityBarometerVisibility
3:56 am
Sun, Dec 15
44 °FClear.14 mph76%29.87 "Hg10 mi
2:56 am44 °FClear.10 mph73%29.85 "Hg10 mi
1:56 am45 °FClear.12 mph74%29.82 "Hg10 mi
12:56 am46 °FClear.10 mph73%29.77 "Hg10 mi
11:56 pm
Sat, Dec 14
47 °FClear.12 mph73%29.75 "Hg10 mi
9:56 pm51 °FPassing clouds.13 mph71%29.67 "Hg10 mi
8:56 pm52 °FPassing clouds.17 mph79%29.63 "Hg10 mi
7:56 pm52 °FPassing clouds.15 mph96%29.59 "Hg10 mi
6:56 pm52 °FPassing clouds.15 mph99%29.55 "Hg10 mi
5:56 pm53 °FClear.15 mph97%29.52 "Hg10 mi
4:56 pm54 °FPassing clouds.18 mph93%29.48 "Hg10 mi
3:56 pm55 °FOvercast.15 mph94%29.46 "Hg10 mi
3:11 pm55 °FPartly sunny.13 mph94%29.42 "Hg10 mi
2:56 pm55 °FPartly sunny.14 mph93%29.42 "Hg10 mi
1:56 pm55 °FOvercast.16 mph98%29.43 "Hg10 mi
12:56 pm55 °FOvercast.22 mph100%29.42 "Hg10 mi
11:56 am55 °FOvercast.23 mph100%29.44 "Hg10 mi
10:56 am55 °FOvercast.13 mph100%29.45 "Hg10 mi
10:11 am55 °FLow clouds.13 mph100%29.47 "Hg10 mi
9:56 am55 °FFog.13 mph100%29.48 "Hg5 mi
9:37 am55 °FFog.9 mph100%29.47 "Hg4 mi
9:22 am54 °FFog.8 mph100%29.47 "Hg1 mi
9:11 am54 °FFog.7 mph100%29.47 "Hg0 mi
8:34 am52 °FFog.6 mph100%29.51 "Hg0 mi
7:56 am51 °FFog.3 mph100%29.51 "Hg0 mi
6:56 am51 °FFog.No wind100%29.54 "Hg1 mi
6:36 am52 °FFog.3 mph100%29.55 "Hg1 mi
6:21 am52 °FFog.5 mph100%29.56 "Hg2 mi
6:06 am52 °FFog.No wind100%29.56 "Hg2 mi
5:56 am51 °FFog.No wind100%29.56 "Hg2 mi
5:26 am52 °FFog.3 mph100%29.56 "Hg4 mi
Weather by CustomWeather, © 2019

See weather overview

Advertising